User: anonymous   Login
Location: Unspecified
(0.0000°N, 0.0000°E)
Time: 07:44:52
(UTC+00:00)
Language:

AO-7 - Orbit

View from above orbital plane
View from above orbital plane
View from above satellite
View from above satellite

Ground track
Ground track

The orbit data is extracted from the following two-line orbital elements,

1  7530U 74089B   20047.85974069 -.00000017 +00000-0 +17662-3 0  9998
2  7530 101.7837 018.3596 0011903 237.9569 175.2991 12.53642131070752
Epoch (UTC): 16 February 2020 20:38:01
Eccentricity: 0.0011903
inclination: 101.7837°
perigee height: 1440 km
apogee height: 1458 km
right ascension of ascending node: 18.3596°
argument of perigee: 237.9569°
revolutions per day: 12.53642131
mean anomaly at epoch: 175.2991°
orbit number at epoch: 7075

The dashed part of the orbit path shows where the satellite is in the earth's shadow,  

DLR